Temperature
16 16 16 16 16 16 16 16 16 16 16 15 16 15 15 15 15 15 15 15 15 15 15 15 15 15 15 15 15 15 14 14 14 14 13 13 13 13 13 13 13 13 13
17 16 16 16 16 16 16 16 16 16 16 16 15 15 15 15 15 15 15 15 15 15 15 15 15 15 15 15 15 14 14 14 14 14 13 13 13 13 13 13 13 13 13
17 16 16 16 16 16 16 16 16 16 16 16 16 15 15 15 15 15 15 15 15 15 15 15 15 15 15 15 15 14 14 14 14 14 13 13 13 13 13 13 13 13 12
17 16 16 16 16 16 16 16 16 16 16 16 16 16 15 15 15 15 15 15 15 15 15 15 15 15 15 15 14 14 14 14 14 13 13 13 13 13 13 13 13 12 12
16 16 16 16 16 16 16 16 16 16 16 16 16 16 15 15 15 15 15 15 15 15 15 15 15 14 14 14 14 14 14 14 13 13 13 13 13 13 13 12 12 12 12
17 16 16 16 16 16 16 16 16 16 16 16 16 16 15 15 15 15 15 15 15 15 15 15 14 14 14 14 14 14 14 14 13 13 13 13 12 12 12 12 12 12 12
17 16 16 16 16 16 16 16 16 16 16 16 16 15 15 15 15 15 15 15 15 15 15 14 14 14 14 14 14 13 13 13 13 13 13 12 12 12 12 12 12 11 11
17 16 16 16 16 16 16 16 16 16 16 15 15 15 15 15 15 15 15 15 15 15 14 14 14 14 14 14 13 13 13 13 13 12 12 12 12 12 12 11 11 11 10
17 16 16 16 16 16 16 16 15 15 15 15 15 15 15 15 15 15 15 15 14 14 14 14 14 14 14 13 13 13 13 12 12 12 12 12 11 11 11 11 11 11 10
17 17 17 16 16 16 16 16 15 15 15 15 15 15 15 14 14 14 14 14 14 14 14 14 14 13 13 13 13 13 13 12 12 12 12 11 11 11 11 11 10 10 10
17 17 17 16 16 16 16 15 15 15 15 15 15 14 14 14 14 14 14 14 14 14 14 14 13 13 13 13 13 13 12 12 12 11 11 11 11 10 10 10 10 9 9
17 17 16 16 16 16 16 15 15 15 15 15 14 14 14 14 14 14 14 14 14 14 14 13 13 13 13 13 12 12 12 12 11 11 11 11 10 10 10 9 9 9 8
17 17 16 16 16 15 15 15 15 14 14 14 14 14 14 14 14 14 14 13 13 13 13 13 13 12 12 12 12 12 11 11 11 11 10 10 10 9 9 9 9 8 8
17 16 16 16 15 15 15 15 15 14 14 14 14 14 14 14 14 13 13 13 13 13 13 12 12 12 12 12 11 11 11 11 10 10 10 9 9 9 9 8 8 8 8
17 16 16 16 15 15 15 14 14 14 14 14 14 14 14 14 14 14 13 13 13 13 13 12 12 12 12 11 11 11 10 10 10 10 9 9 9 9 8 8 7 7 7
16 16 16 15 15 15 14 14 14 14 14 14 14 14 14 14 13 13 13 13 13 12 12 12 12 12 11 11 11 10 10 10 10 9 9 9 8 8 8 7 7 6 6
16 16 15 15 15 15 14 14 14 13 13 13 13 13 13 13 13 13 13 13 12 12 12 12 12 11 11 11 10 10 10 9 9 9 9 8 8 8 7 7 6 6 6
16 16 15 15 15 14 14 14 14 13 13 13 13 13 13 13 13 12 12 12 12 12 12 12 11 11 11 10 10 10 9 9 9 8 8 8 7 7 7 6 6 5 5
16 15 15 15 14 14 14 14 13 13 13 13 13 12 12 12 12 12 12 12 12 12 11 11 11 10 10 10 9 9 9 8 8 8 7 7 7 6 6 6 5 5 4
15 15 15 14 14 14 13 13 13 13 13 12 12 12 12 12 12 12 11 11 11 11 11 10 10 10 10 9 9 9 8 8 8 7 7 7 6 6 5 5 5 4 4
15 14 14 14 13 13 13 13 13 12 12 12 12 12 12 12 11 11 11 11 11 10 10 10 10 9 9 9 8 8 8 7 7 7 6 6 6 5 5 4 4 3 3
14 14 13 13 13 13 13 13 12 12 12 12 12 11 11 11 11 11 11 10 10 10 10 9 9 9 9 8 8 8 7 7 7 6 6 6 5 5 4 4 3 3 2
14 13 13 13 13 12 12 12 12 12 11 11 11 11 11 11 10 10 10 10 10 9 9 9 9 8 8 8 7 7 7 7 6 6 5 5 4 4 4 3 3 2 2
13 13 13 13 12 12 12 12 11 11 11 11 11 11 10 10 10 10 10 9 9 9 8 8 8 8 7 7 7 6 6 6 5 5 5 4 4 3 3 2 2 2 1
13 13 12 12 12 12 11 11 11 11 11 10 10 10 10 10 9 9 9 9 8 8 8 8 7 7 7 6 6 6 6 5 5 5 4 4 3 3 2 2 1 1 1
12 12 12 12 12 11 11 11 11 11 10 10 10 10 9 9 9 9 9 8 8 8 7 7 7 7 6 6 6 5 5 5 4 4 3 3 3 2 2 1 1 0 0
Wind_Speed
7 6 6 6 5 5 5 5 5 4 5 5 4 4 3 3 3 4 3 4 4 3 3 4 3 3 3 3 3 3 3 3 4 0 1 1 2 2 2 3 3 3 4
7 6 6 6 5 5 5 5 5 5 4 5 4 4 4 3 3 4 4 4 4 4 3 4 3 3 4 3 3 3 3 3 4 2 1 2 2 1 2 2 3 3 3
7 7 6 6 6 6 5 5 5 5 5 4 5 4 4 4 3 4 4 4 4 3 4 4 3 4 3 3 4 3 3 4 3 3 1 1 1 2 2 3 3 3 4
8 7 7 7 6 6 6 5 5 5 5 5 4 4 4 4 4 4 4 4 4 4 4 4 4 4 4 4 4 3 4 5 4 4 2 2 1 2 2 2 3 3 2
8 8 8 7 6 6 6 5 5 5 6 5 5 4 4 4 4 5 5 5 5 4 4 3 3 4 5 5 4 4 5 4 4 4 2 2 2 2 1 1 2 2 2
9 8 8 7 7 7 7 6 6 5 5 5 5 5 5 4 7 8 7 5 5 5 4 3 3 3 5 6 8 7 6 6 4 3 2 1 1 1 1 1 1 2 3
8 8 8 8 8 7 7 7 6 6 5 5 5 6 5 5 8 9 9 6 5 4 4 3 3 3 4 3 5 6 5 5 6 5 3 2 2 2 1 1 1 1 0
7 8 8 9 8 7 7 7 6 5 6 5 5 6 5 5 8 9 9 7 5 4 3 3 4 3 3 5 5 5 4 3 2 3 3 2 2 2 2 2 1 0 1
8 8 9 9 9 8 8 7 6 6 5 4 5 6 5 4 7 8 9 6 5 4 3 3 4 4 5 8 7 5 4 3 6 6 5 4 4 4 5 4 3 3 2
9 9 9 10 10 10 9 7 5 6 6 6 5 5 6 5 6 8 9 6 5 4 3 3 4 5 6 8 6 6 4 1 2 4 5 5 6 6 6 4 3 2 1
8 7 8 9 10 9 8 6 6 6 6 6 5 4 4 5 6 8 9 5 5 5 3 2 2 6 7 8 7 4 5 3 2 3 3 3 4 4 4 4 4 3 2
8 8 8 8 8 8 8 7 7 7 7 6 5 3 2 2 4 6 9 8 8 6 4 3 3 7 8 8 6 5 6 5 3 3 3 2 2 2 2 3 4 3 2
9 9 8 7 6 8 9 8 7 7 6 6 5 5 3 2 3 6 8 9 9 5 4 6 6 7 7 6 6 7 6 4 4 3 2 1 1 1 3 4 5 6 6
10 9 8 8 6 6 6 7 7 7 7 6 6 5 4 3 3 3 4 5 7 5 4 6 7 7 6 5 5 5 4 3 4 3 1 1 1 2 2 2 2 2 2
10 9 8 7 7 6 5 5 7 7 8 9 7 7 7 6 6 9 8 6 6 6 6 4 3 3 3 2 2 2 2 2 3 2 2 1 1 2 1 1 1 2 1
9 8 7 6 6 6 6 4 3 4 7 9 9 8 6 7 9 10 11 10 11 12 8 4 3 3 3 3 2 2 1 1 1 2 1 1 1 1 1 1 1 1 1
9 8 7 7 7 6 6 7 5 3 4 5 6 8 9 10 11 11 11 10 10 11 6 4 4 4 3 3 3 2 2 1 1 2 2 1 1 1 1 1 1 1 1
8 9 8 7 7 7 6 6 6 6 4 2 2 5 8 9 10 11 12 10 6 5 4 4 4 4 3 3 3 2 2 2 2 2 1 1 1 1 1 1 1 1 1
8 7 6 6 6 6 6 6 6 6 5 4 3 3 6 7 8 9 10 6 6 5 4 4 4 4 3 3 3 3 2 2 2 1 1 1 1 1 0 0 0 1 1
7 9 8 7 6 6 6 6 6 6 6 5 5 4 4 5 4 4 4 4 5 5 5 4 3 4 4 3 3 3 2 2 2 1 1 1 1 1 1 1 1 0 1
7 8 9 7 6 6 6 6 6 6 6 5 4 5 8 6 6 5 5 4 5 5 5 4 4 4 3 3 3 3 3 2 2 1 1 1 1 0 0 0 0 0 1
7 7 6 6 6 6 6 5 5 6 6 6 4 4 8 5 4 5 4 4 4 4 5 5 4 4 4 4 4 3 3 2 2 1 1 1 1 0 0 0 0 1 1
7 7 6 6 6 7 6 5 5 5 5 5 5 5 5 4 4 4 4 4 4 5 6 6 5 4 4 5 5 5 4 3 3 3 2 1 1 0 0 0 1 0 1
8 8 7 6 6 6 6 6 5 5 5 5 5 5 5 5 4 4 4 4 5 5 6 6 6 7 7 6 6 6 5 5 5 4 4 3 2 1 0 0 0 1 1
7 8 7 7 7 6 6 6 5 5 5 5 5 5 5 5 5 4 4 5 6 6 7 7 7 8 9 8 7 7 7 6 6 5 4 3 2 1 1 0 0 1 1
7 7 7 6 6 6 6 6 5 5 5 5 5 5 5 5 5 5 5 5 6 6 7 7 8 9 9 8 8 8 7 6 5 5 4 3 2 1 1 0 0 1 1
Wind_Direction
175 171 162 163 157 150 155 162 162 157 150 148 150 138 129 125 120 116 117 114 108 100 100 107 97 95 90 81 87 87 91 111 124 339 347 348 20 27 29 38 39 38 23
172 165 163 165 156 156 162 163 160 160 156 151 146 135 134 129 123 127 128 118 119 119 120 111 105 105 89 85 88 86 89 104 127 126 6 4 13 3 5 18 11 16 14
167 164 160 166 166 165 166 160 155 149 145 142 136 138 139 137 134 129 125 122 124 128 127 127 126 110 96 92 94 90 86 87 92 117 64 4 1 18 21 15 15 10 21
169 167 169 179 176 170 163 157 153 149 149 147 144 147 144 138 133 127 122 116 113 114 123 132 133 130 136 129 111 103 101 90 85 94 73 27 8 358 35 19 0 348 4
171 175 180 181 173 163 157 155 150 149 151 149 142 135 131 130 136 131 125 122 116 106 99 108 119 129 137 139 130 126 115 105 98 94 83 47 22 17 354 337 355 337 351
175 182 176 169 165 161 159 154 148 145 140 134 139 138 133 137 138 134 130 121 121 120 114 105 103 107 116 118 121 124 127 128 131 122 113 115 269 270 328 30 24 24 348
177 177 171 169 167 168 163 152 152 149 136 132 139 138 136 138 137 131 127 123 121 131 137 130 112 103 106 112 106 99 92 104 133 143 144 176 198 221 157 62 60 111 268
172 174 171 167 167 164 158 158 157 148 144 143 146 147 140 148 145 135 128 117 112 118 129 137 124 108 117 125 115 99 81 64 95 128 151 176 170 162 161 165 184 139 341
172 175 173 167 163 162 164 164 157 144 142 147 148 146 145 151 150 142 129 116 110 103 106 116 126 121 123 125 117 111 89 58 63 80 89 86 77 84 106 89 69 68 14
181 180 176 169 168 170 171 163 151 148 153 149 143 152 153 154 154 150 138 126 120 111 93 91 108 122 122 125 126 125 121 110 74 65 57 52 59 65 83 96 122 110 89
175 165 166 170 172 170 165 158 151 149 144 145 148 152 156 159 157 154 149 141 143 135 125 122 121 119 117 120 123 131 142 134 105 89 64 44 44 47 49 62 87 121 130
162 158 163 170 173 167 157 158 155 151 149 154 150 149 160 174 165 162 158 153 146 141 147 150 136 121 110 109 109 110 111 104 97 87 74 52 43 27 19 44 62 78 94
159 163 162 160 164 161 162 163 157 159 162 167 165 170 177 173 172 162 159 157 151 145 147 140 129 121 108 97 95 98 97 99 100 93 84 49 360 19 48 44 39 46 43
163 164 161 157 155 157 162 165 166 172 173 174 175 178 178 170 175 168 161 151 145 136 127 118 110 105 95 89 84 84 88 108 116 118 112 45 33 42 38 39 34 27 28
162 163 161 159 159 154 156 167 174 181 181 179 185 180 176 189 200 178 165 163 163 152 130 106 97 100 96 86 80 81 84 92 98 97 95 72 54 52 27 26 41 47 48
159 162 162 160 156 152 145 124 106 142 164 172 174 174 182 181 166 164 165 160 152 142 127 129 141 150 156 159 147 121 103 117 125 118 106 103 84 59 29 26 40 53 20
163 165 162 160 158 157 157 156 146 99 98 127 160 170 166 160 157 158 156 147 143 140 132 148 159 168 168 161 156 149 147 140 126 119 115 114 103 70 53 29 26 22 356
161 162 160 160 160 161 163 163 160 156 149 128 120 153 158 154 154 153 143 126 126 141 154 162 170 170 165 163 161 157 147 123 115 119 116 109 112 106 75 27 14 4 336
156 157 155 152 153 156 158 156 155 155 151 142 123 119 136 136 135 140 140 142 156 163 170 170 168 164 162 162 159 154 149 145 135 132 128 127 135 124 131 279 282 353 12
151 152 151 150 150 151 152 152 155 155 155 156 162 162 141 126 132 144 155 158 160 165 167 167 164 160 160 158 155 151 144 142 143 146 158 172 187 167 196 233 234 286 322
150 154 149 148 154 156 155 158 162 162 164 167 174 167 157 157 162 161 165 169 171 173 169 161 157 159 159 156 159 155 152 157 168 172 176 180 152 135 189 220 270 289 313
153 153 155 154 154 155 156 158 159 160 162 162 153 143 150 146 153 157 164 169 170 159 154 149 153 154 161 162 165 164 160 164 171 166 161 144 126 136 102 336 314 324 324
153 152 151 149 148 149 149 151 155 158 159 160 156 149 151 159 161 164 165 162 152 144 139 139 145 143 131 135 141 145 161 173 171 158 157 148 141 150 134 326 308 306 307
157 158 157 155 151 152 154 157 159 159 158 158 156 155 156 163 164 162 160 147 142 138 138 139 139 140 135 127 125 129 132 134 134 134 141 151 154 137 119 237 288 289 303
158 159 159 160 159 159 158 158 160 160 159 159 159 156 155 156 155 151 144 134 133 131 129 130 128 129 129 128 125 124 124 124 123 118 117 116 125 129 119 104 337 328 322
155 156 158 158 158 157 157 157 158 157 158 157 156 154 153 152 150 144 138 133 131 129 127 126 127 129 129 126 125 125 123 120 118 113 107 108 113 126 116 120 322 322 324
Height
1536 1538 1540 1543 1545 1547 1548 1549 1550 1551 1552 1553 1554 1555 1556 1556 1557 1557 1557 1558 1558 1558 1558 1558 1559 1559 1560 1560 1561 1561 1561 1561 1560 1561 1561 1561 1561 1560 1559 1558 1558 1556 1555
1535 1537 1539 1542 1544 1546 1547 1549 1550 1551 1552 1553 1554 1555 1556 1557 1557 1558 1558 1558 1558 1559 1559 1559 1560 1560 1560 1561 1561 1561 1561 1561 1561 1561 1561 1561 1561 1560 1560 1559 1558 1557 1556
1533 1535 1538 1540 1543 1545 1547 1548 1549 1551 1552 1553 1554 1555 1556 1557 1557 1558 1558 1559 1559 1559 1560 1560 1560 1561 1561 1561 1561 1561 1562 1562 1562 1562 1562 1561 1561 1561 1560 1559 1558 1557 1556
1531 1534 1536 1539 1541 1543 1546 1547 1549 1550 1551 1553 1554 1555 1555 1556 1557 1558 1558 1559 1559 1560 1560 1560 1561 1561 1561 1561 1562 1562 1562 1562 1562 1562 1562 1561 1561 1560 1560 1559 1558 1557 1556
1529 1531 1534 1537 1540 1542 1544 1546 1548 1550 1551 1552 1553 1554 1555 1556 1557 1558 1559 1559 1559 1560 1560 1561 1561 1561 1562 1562 1562 1562 1562 1562 1562 1562 1562 1561 1561 1560 1559 1559 1558 1557 1556
1526 1529 1532 1535 1538 1540 1543 1545 1547 1549 1550 1552 1553 1554 1555 1556 1557 1558 1559 1559 1560 1560 1561 1561 1561 1562 1562 1562 1562 1562 1562 1562 1562 1562 1561 1561 1560 1560 1559 1558 1557 1556 1555
1524 1527 1530 1533 1535 1538 1541 1544 1546 1547 1549 1551 1552 1553 1555 1556 1557 1558 1559 1559 1560 1560 1561 1561 1561 1562 1562 1562 1562 1562 1562 1562 1562 1562 1561 1561 1560 1559 1559 1558 1557 1556 1554
1522 1524 1528 1530 1533 1537 1539 1542 1544 1546 1548 1549 1551 1552 1554 1555 1556 1557 1558 1559 1560 1560 1561 1561 1561 1561 1562 1562 1562 1562 1562 1562 1561 1561 1561 1560 1560 1559 1558 1557 1556 1555 1554
1519 1522 1525 1528 1531 1534 1537 1540 1542 1544 1546 1548 1550 1551 1553 1554 1555 1556 1557 1558 1559 1560 1560 1561 1561 1561 1561 1562 1562 1562 1561 1561 1561 1561 1560 1559 1559 1558 1557 1556 1555 1554 1552
1517 1520 1523 1526 1529 1532 1535 1537 1540 1542 1545 1546 1548 1550 1551 1553 1554 1555 1556 1557 1558 1559 1559 1560 1560 1561 1561 1561 1561 1561 1561 1561 1560 1560 1559 1559 1558 1557 1556 1555 1553 1552 1551
1515 1518 1521 1524 1527 1529 1532 1535 1538 1540 1543 1544 1546 1548 1550 1551 1553 1554 1555 1556 1557 1558 1558 1559 1560 1560 1560 1560 1560 1560 1560 1560 1559 1559 1558 1557 1556 1555 1554 1553 1552 1551 1550
1513 1516 1518 1521 1524 1527 1530 1532 1535 1538 1540 1542 1544 1546 1548 1549 1551 1552 1553 1555 1556 1557 1557 1558 1559 1559 1559 1559 1559 1559 1559 1558 1558 1557 1556 1556 1555 1554 1553 1552 1551 1550 1549
1510 1513 1516 1519 1522 1524 1527 1530 1532 1535 1537 1539 1541 1543 1545 1547 1548 1550 1552 1553 1554 1555 1556 1557 1557 1558 1558 1558 1558 1557 1557 1557 1556 1555 1555 1554 1554 1553 1552 1551 1550 1549 1547
1507 1510 1513 1516 1519 1522 1524 1527 1529 1532 1534 1536 1538 1540 1542 1544 1546 1548 1549 1550 1552 1553 1554 1555 1556 1556 1556 1556 1556 1556 1555 1555 1554 1554 1553 1553 1552 1551 1550 1549 1548 1546 1545
1504 1507 1510 1513 1516 1519 1521 1524 1526 1529 1531 1533 1535 1538 1540 1541 1544 1546 1547 1548 1549 1551 1552 1553 1553 1554 1554 1554 1554 1554 1554 1553 1553 1552 1552 1551 1550 1549 1548 1547 1545 1544 1542
1501 1504 1507 1510 1513 1515 1518 1521 1524 1526 1529 1531 1533 1536 1537 1540 1542 1543 1545 1546 1547 1548 1549 1550 1550 1551 1551 1551 1551 1551 1551 1551 1551 1550 1549 1549 1548 1547 1546 1544 1543 1541 1540
1498 1501 1504 1507 1510 1512 1515 1517 1520 1523 1526 1528 1530 1533 1535 1537 1539 1540 1542 1543 1544 1545 1546 1546 1547 1548 1548 1549 1549 1549 1549 1549 1549 1548 1547 1546 1545 1544 1543 1542 1540 1539 1537
1497 1499 1501 1504 1507 1509 1512 1515 1517 1519 1522 1524 1527 1530 1532 1534 1536 1537 1539 1540 1541 1542 1542 1543 1544 1545 1546 1546 1546 1547 1547 1546 1546 1545 1544 1544 1543 1542 1540 1539 1538 1536 1534
1494 1497 1499 1502 1505 1507 1510 1512 1515 1517 1519 1521 1524 1526 1529 1531 1532 1534 1535 1536 1537 1538 1539 1540 1541 1542 1543 1543 1544 1544 1544 1544 1543 1542 1542 1541 1540 1539 1537 1536 1535 1533 1532
1492 1495 1497 1499 1502 1504 1507 1509 1512 1514 1516 1518 1521 1523 1525 1527 1528 1530 1531 1532 1534 1535 1536 1537 1538 1539 1539 1540 1540 1541 1540 1540 1540 1539 1538 1537 1536 1535 1534 1533 1531 1530 1528
1489 1492 1495 1497 1499 1502 1504 1506 1509 1511 1513 1515 1518 1520 1522 1524 1525 1526 1528 1529 1530 1531 1533 1534 1535 1536 1536 1537 1537 1537 1537 1537 1536 1536 1535 1534 1533 1532 1531 1530 1528 1527 1525
1487 1490 1492 1495 1497 1500 1502 1504 1507 1509 1511 1513 1515 1517 1519 1520 1522 1523 1524 1526 1527 1528 1530 1531 1531 1532 1533 1533 1533 1533 1533 1533 1532 1532 1531 1530 1529 1528 1527 1526 1525 1523 1522
1485 1488 1490 1493 1496 1498 1500 1502 1504 1507 1509 1511 1512 1514 1515 1517 1518 1520 1521 1522 1524 1525 1526 1527 1528 1528 1529 1529 1530 1530 1529 1529 1529 1528 1527 1526 1525 1524 1524 1523 1521 1520 1518
1483 1486 1488 1491 1493 1496 1498 1500 1502 1504 1506 1508 1509 1511 1513 1514 1516 1517 1518 1519 1520 1522 1523 1524 1524 1525 1525 1525 1526 1526 1526 1526 1525 1525 1524 1523 1522 1521 1520 1519 1518 1517 1515
1481 1483 1486 1488 1491 1493 1495 1497 1499 1501 1503 1505 1507 1508 1510 1512 1513 1514 1515 1516 1517 1518 1519 1520 1521 1521 1522 1522 1522 1522 1522 1522 1522 1521 1520 1519 1519 1518 1517 1516 1515 1513 1512
1478 1481 1483 1486 1488 1491 1493 1495 1497 1499 1501 1502 1504 1505 1507 1508 1510 1511 1512 1513 1514 1515 1516 1517 1518 1518 1519 1519 1519 1520 1519 1519 1518 1518 1517 1516 1515 1515 1514 1512 1511 1510 1509